Location: Lalanga
(4.5882°N, 32.9072°E)
Time: 03:31:28
(UTC+00:00)

Cosmos 1980 - Pass Details

Date: 24 January 2020
Orbit: 838 x 849 km, 71.0° (Epoch: 18 February)

Event Time Altitude Azimuth Distance (km) Brightness Sun altitude
Rises 16:09:54 0° 355° (N) 3,396 6.7 -3.7°
Reaches altitude 10° 16:12:26 10° 1° (N) 2,462 5.9 -4.3°
Maximum altitude 16:17:51 47° 74° (ENE) 1,101 3.9 -5.6°
Drops below altitude 10° 16:23:16 10° 147° (SSE) 2,462 6.0 -6.9°
Sets 16:25:47 0° 153° (SSE) 3,397 6.8 -7.5°
